| time (UTC) | temp F | wind direction | speed MPH | gust MPH | rain 1hr in | rain 24hr in | rain mn in | humidity % | barometer mb |
| 20260502163105 | 56 | 281 | 2.0 | 2.0 | 0.00 | 0.00 | 0.00 | 57 | 1014.5 |
| 20260502162602 | 55 | 169 | 0.0 | 1.0 | 0.00 | 0.00 | 0.00 | 56 | 1014.7 |
| 20260502162100 | 55 | 126 | 1.0 | 1.0 | 0.00 | 0.00 | 0.00 | 58 | 1014.6 |
| 20260502161556 | 56 | 230 | 2.0 | 2.0 | 0.00 | 0.00 | 0.00 | 55 | 1014.8 |
| 20260502161054 | 56 | 292 | 2.0 | 2.0 | 0.00 | 0.00 | 0.00 | 56 | 1014.8 |
| 20260502160552 | 56 | 155 | 1.0 | 2.0 | 0.00 | 0.00 | 0.00 | 55 | 1014.7 |
| 20260502152010 | 55 | 90 | 3.0 | 5.0 | 0.00 | 0.00 | 0.00 | 57 | 1014.7 |
| 20260502151507 | 54 | 83 | 1.0 | 1.0 | 0.00 | 0.00 | 0.00 | 60 | 1014.9 |
| 20260502151004 | 54 | 204 | 1.0 | 2.0 | 0.00 | 0.00 | 0.00 | 58 | 1014.7 |
| 20260502150502 | 55 | 249 | 4.0 | 5.0 | 0.00 | 0.00 | 0.00 | 60 | 1014.8 |
| 20260502130347 | 49 | 116 | 1.0 | 1.0 | 0.00 | 0.00 | 0.00 | 72 | 1015.3 |
| 20260502123329 | 48 | 299 | 1.0 | 2.0 | 0.00 | 0.00 | 0.00 | 78 | 1015.1 |
| 20260502122826 | 48 | 251 | 2.0 | 3.0 | 0.00 | 0.00 | 0.00 | 78 | 1015.1 |
| 20260502122322 | 48 | 58 | 1.0 | 2.0 | 0.00 | 0.00 | 0.00 | 78 | 1015.0 |
| 20260502121821 | 49 | 21 | 0.0 | 0.0 | 0.00 | 0.00 | 0.00 | 78 | 1014.9 |
| 20260502121318 | 49 | 328 | 4.0 | 7.0 | 0.00 | 0.00 | 0.00 | 80 | 1014.8 |
| 20260502120815 | 49 | 257 | 4.0 | 6.0 | 0.00 | 0.00 | 0.00 | 81 | 1014.9 |
| 20260502120311 | 49 | 293 | 5.0 | 7.0 | 0.00 | 0.00 | 0.00 | 81 | 1014.6 |
| 20260502115809 | 48 | 214 | 2.0 | 3.0 | 0.00 | 0.00 | 0.00 | 81 | 1014.7 |
| 20260502115306 | 48 | 76 | 2.0 | 3.0 | 0.00 | 0.00 | 0.00 | 84 | 1014.7 |
| 20260502114802 | 48 | 122 | 2.0 | 2.0 | 0.00 | 0.00 | 0.00 | 88 | 1014.7 |
| 20260502114259 | 48 | 271 | 3.0 | 3.0 | 0.00 | 0.00 | 0.00 | 89 | 1014.7 |
| 20260502113756 | 48 | 158 | 0.0 | 1.0 | 0.00 | 0.00 | 0.00 | 90 | 1014.3 |
| 20260502113254 | 48 | 309 | 6.0 | 8.0 | 0.00 | 0.00 | 0.00 | 89 | 1014.5 |
| 20260502112752 | 48 | 143 | 1.0 | 1.0 | 0.00 | 0.00 | 0.00 | 90 | 1014.6 |
| 20260502112249 | 48 | 227 | 2.0 | 3.0 | 0.00 | 0.00 | 0.00 | 90 | 1014.4 |
| 20260502111746 | 48 | 288 | 5.0 | 6.0 | 0.00 | 0.00 | 0.00 | 90 | 1014.3 |
| 20260502111243 | 48 | 301 | 6.0 | 8.0 | 0.00 | 0.00 | 0.00 | 91 | 1014.2 |
| 20260502110740 | 48 | 261 | 2.0 | 2.0 | 0.00 | 0.00 | 0.00 | 91 | 1014.3 |
| 20260502110238 | 48 | 250 | 1.0 | 1.0 | 0.00 | 0.00 | 0.00 | 91 | 1014.2 |
| 20260502105736 | 48 | 134 | 1.0 | 2.0 | 0.00 | 0.00 | 0.00 | 92 | 1014.0 |
| 20260502105232 | 48 | 293 | 2.0 | 2.0 | 0.00 | 0.00 | 0.00 | 92 | 1013.9 |
| 20260502104730 | 48 | 277 | 2.0 | 3.0 | 0.00 | 0.00 | 0.00 | 93 | 1013.9 |
| 20260502104227 | 48 | 285 | 2.0 | 2.0 | 0.00 | 0.00 | 0.00 | 93 | 1014.0 |
| 20260502103725 | 48 | 318 | 5.0 | 7.0 | 0.00 | 0.00 | 0.00 | 93 | 1013.9 |
| 20260502103222 | 49 | 288 | 3.0 | 3.0 | 0.00 | 0.00 | 0.00 | 93 | 1013.9 |
| 20260502102719 | 48 | 313 | 2.0 | 2.0 | 0.00 | 0.00 | 0.00 | 93 | 1013.7 |
| 20260502102216 | 48 | 248 | 3.0 | 3.0 | 0.00 | 0.00 | 0.00 | 93 | 1013.9 |
| 20260502101714 | 48 | 263 | 1.0 | 2.0 | 0.00 | 0.00 | 0.00 | 93 | 1013.7 |
| 20260502101212 | 48 | 217 | 1.0 | 2.0 | 0.00 | 0.00 | 0.00 | 93 | 1013.6 |
| 20260502100710 | 48 | 278 | 2.0 | 3.0 | 0.00 | 0.00 | 0.00 | 93 | 1013.8 |
| 20260502100208 | 48 | 272 | 1.0 | 2.0 | 0.00 | 0.00 | 0.00 | 93 | 1013.4 |
| 20260502091142 | 47 | 191 | 0.0 | 0.0 | 0.00 | 0.00 | 0.00 | 94 | 1013.5 |
| 20260502090639 | 47 | 195 | 0.0 | 0.0 | 0.00 | 0.00 | 0.00 | 93 | 1013.4 |
| 20260502090136 | 47 | 191 | 0.0 | 0.0 | 0.00 | 0.00 | 0.00 | 93 | 1013.3 |
| 20260502071528 | 51 | 224 | 0.0 | 0.0 | 0.00 | 0.00 | 0.00 | 85 | 1013.3 |
| 20260502071026 | 51 | 226 | 0.0 | 0.0 | 0.00 | 0.00 | 0.00 | 85 | 1013.3 |
| 20260502070523 | 51 | 212 | 0.0 | 0.0 | 0.00 | 0.00 | 0.00 | 85 | 1013.4 |
| 20260502070021 | 51 | 235 | 0.0 | 1.0 | 0.00 | 0.00 | 0.00 | 85 | 1013.3 |
| 20260502065520 | 51 | 150 | 0.0 | 0.0 | 0.00 | 0.00 | 0.00 | 85 | 1013.4 |
| 20260502065017 | 51 | 266 | 0.0 | 0.0 | 0.00 | 0.00 | 0.00 | 86 | 1013.5 |
| 20260502064515 | 51 | 209 | 1.0 | 2.0 | 0.00 | 0.00 | 0.00 | 86 | 1013.5 |
| 20260502064012 | 51 | 122 | 0.0 | 0.0 | 0.00 | 0.00 | 0.00 | 86 | 1013.6 |
| 20260502063510 | 51 | 119 | 2.0 | 3.0 | 0.00 | 0.00 | 0.00 | 86 | 1013.4 |
| 20260502063008 | 51 | 292 | 1.0 | 2.0 | 0.00 | 0.00 | 0.00 | 86 | 1013.5 |
| 20260502062504 | 51 | 124 | 0.0 | 0.0 | 0.00 | 0.00 | 0.00 | 86 | 1013.5 |
| 20260502062003 | 51 | 111 | 0.0 | 1.0 | 0.00 | 0.00 | 0.00 | 86 | 1013.4 |
| 20260502061500 | 51 | 246 | 1.0 | 2.0 | 0.00 | 0.00 | 0.00 | 86 | 1013.6 |
| 20260502060956 | 51 | 243 | 1.0 | 2.0 | 0.00 | 0.00 | 0.00 | 85 | 1013.8 |
| 20260502060452 | 52 | 292 | 4.0 | 5.0 | 0.00 | 0.00 | 0.00 | 85 | 1013.8 |
| 20260502055948 | 52 | 280 | 2.0 | 2.0 | 0.00 | 0.00 | 0.00 | 85 | 1014.0 |
| 20260502055446 | 52 | 298 | 3.0 | 3.0 | 0.00 | 0.00 | 0.00 | 85 | 1013.9 |
| 20260502054941 | 52 | 264 | 2.0 | 2.0 | 0.00 | 0.00 | 0.00 | 85 | 1014.1 |
| 20260502054438 | 52 | 244 | 1.0 | 1.0 | 0.00 | 0.00 | 0.00 | 84 | 1013.9 |
| 20260502053935 | 52 | 263 | 3.0 | 3.0 | 0.00 | 0.00 | 0.00 | 84 | 1013.7 |
| 20260502053432 | 53 | 253 | 2.0 | 2.0 | 0.00 | 0.00 | 0.00 | 84 | 1013.8 |
| 20260502052930 | 53 | 231 | 3.0 | 3.0 | 0.00 | 0.00 | 0.00 | 83 | 1014.0 |
| 20260502052428 | 52 | 228 | 2.0 | 2.0 | 0.00 | 0.00 | 0.00 | 83 | 1013.7 |
| 20260502051926 | 52 | 225 | 1.0 | 1.0 | 0.00 | 0.00 | 0.00 | 83 | 1013.9 |
| 20260502051424 | 52 | 216 | 0.0 | 0.0 | 0.00 | 0.00 | 0.00 | 83 | 1013.9 |
| 20260502050920 | 53 | 245 | 1.0 | 2.0 | 0.00 | 0.00 | 0.00 | 83 | 1013.7 |
| 20260502050417 | 52 | 246 | 1.0 | 1.0 | 0.00 | 0.00 | 0.00 | 82 | 1013.6 |
| 20260502045914 | 52 | 223 | 2.0 | 2.0 | 0.00 | 0.00 | 0.00 | 83 | 1013.8 |
| 20260502045410 | 52 | 295 | 2.0 | 2.0 | 0.00 | 0.00 | 0.00 | 83 | 1013.7 |
| 20260502044902 | 52 | 232 | 0.0 | 0.0 | 0.00 | 0.00 | 0.00 | 83 | 1013.5 |
| 20260502044357 | 52 | 197 | 0.0 | 0.0 | 0.00 | 0.00 | 0.00 | 83 | 1013.4 |
| 20260502043855 | 52 | 205 | 0.0 | 1.0 | 0.00 | 0.00 | 0.00 | 82 | 1013.6 |
| 20260502043352 | 53 | 220 | 0.0 | 0.0 | 0.00 | 0.00 | 0.00 | 81 | 1013.8 |
| 20260502042852 | 53 | 217 | 0.0 | 0.0 | 0.00 | 0.00 | 0.00 | 80 | 1013.9 |
| 20260502042349 | 53 | 219 | 1.0 | 1.0 | 0.00 | 0.00 | 0.00 | 78 | 1014.0 |
| 20260502041846 | 53 | 227 | 0.0 | 1.0 | 0.00 | 0.00 | 0.00 | 76 | 1014.1 |
| 20260502041343 | 53 | 239 | 0.0 | 1.0 | 0.00 | 0.00 | 0.00 | 74 | 1013.8 |
| 20260502040841 | 53 | 231 | 0.0 | 0.0 | 0.00 | 0.00 | 0.00 | 73 | 1013.9 |
| 20260502040337 | 53 | 254 | 0.0 | 1.0 | 0.00 | 0.00 | 0.00 | 73 | 1013.6 |
| 20260502035833 | 53 | 284 | 1.0 | 1.0 | 0.00 | 0.00 | 0.00 | 73 | 1013.5 |
| 20260502035331 | 53 | 270 | 1.0 | 1.0 | 0.00 | 0.00 | 0.00 | 73 | 1013.5 |
| 20260502034828 | 53 | 279 | 1.0 | 1.0 | 0.00 | 0.00 | 0.00 | 72 | 1013.4 |
| 20260502034327 | 53 | 194 | 0.0 | 0.0 | 0.00 | 0.00 | 0.00 | 72 | 1013.3 |
| 20260502033825 | 53 | 186 | 0.0 | 0.0 | 0.00 | 0.00 | 0.00 | 72 | 1013.3 |
| 20260502033322 | 53 | 166 | 0.0 | 0.0 | 0.00 | 0.00 | 0.00 | 72 | 1013.1 |
| 20260502032818 | 53 | 155 | 1.0 | 1.0 | 0.00 | 0.00 | 0.00 | 72 | 1013.1 |
| 20260502032314 | 53 | 156 | 0.0 | 0.0 | 0.00 | 0.00 | 0.00 | 71 | 1013.3 |
| 20260502031812 | 53 | 171 | 0.0 | 0.0 | 0.00 | 0.00 | 0.00 | 71 | 1013.1 |
| 20260502031310 | 53 | 190 | 0.0 | 0.0 | 0.00 | 0.00 | 0.00 | 72 | 1013.3 |
| 20260502030809 | 54 | 184 | 0.0 | 1.0 | 0.00 | 0.00 | 0.00 | 71 | 1013.4 |
| 20260502030306 | 54 | 181 | 0.0 | 0.0 | 0.00 | 0.00 | 0.00 | 70 | 1013.3 |
| 20260502025803 | 54 | 217 | 0.0 | 0.0 | 0.00 | 0.00 | 0.00 | 69 | 1013.4 |
| 20260502025301 | 54 | 216 | 0.0 | 0.0 | 0.00 | 0.00 | 0.00 | 67 | 1013.2 |
| 20260502024759 | 55 | 222 | 0.0 | 0.0 | 0.00 | 0.00 | 0.00 | 67 | 1013.3 |
| 20260502024256 | 55 | 249 | 2.0 | 2.0 | 0.00 | 0.00 | 0.00 | 66 | 1013.3 |
| 20260502023754 | 54 | 163 | 0.0 | 0.0 | 0.00 | 0.00 | 0.00 | 66 | 1013.2 |
| 20260502023251 | 55 | 185 | 0.0 | 0.0 | 0.00 | 0.00 | 0.00 | 66 | 1013.4 |
| 20260502022749 | 55 | 187 | 0.0 | 0.0 | 0.00 | 0.00 | 0.00 | 65 | 1013.5 |
| 20260502022245 | 56 | 221 | 1.0 | 1.0 | 0.00 | 0.00 | 0.00 | 64 | 1013.9 |
| 20260502021743 | 56 | 284 | 1.0 | 2.0 | 0.00 | 0.00 | 0.00 | 63 | 1014.1 |
| 20260502021240 | 56 | 289 | 1.0 | 2.0 | 0.00 | 0.00 | 0.00 | 62 | 1014.0 |
| 20260502020737 | 56 | 235 | 2.0 | 2.0 | 0.00 | 0.00 | 0.00 | 61 | 1013.8 |
| 20260502020234 | 57 | 221 | 2.0 | 2.0 | 0.00 | 0.00 | 0.00 | 60 | 1013.6 |
| 20260502015732 | 57 | 298 | 2.0 | 2.0 | 0.00 | 0.00 | 0.00 | 59 | 1013.6 |
| 20260502015228 | 56 | 251 | 0.0 | 1.0 | 0.00 | 0.00 | 0.00 | 59 | 1013.6 |
| 20260502014726 | 56 | 226 | 1.0 | 2.0 | 0.00 | 0.00 | 0.00 | 59 | 1013.6 |
| 20260502014222 | 56 | 206 | 0.0 | 0.0 | 0.00 | 0.00 | 0.00 | 61 | 1013.4 |
| 20260502013719 | 56 | 122 | 1.0 | 1.0 | 0.00 | 0.00 | 0.00 | 61 | 1013.2 |
| 20260502013214 | 57 | 174 | 0.0 | 0.0 | 0.00 | 0.00 | 0.00 | 59 | 1013.3 |
| 20260502012711 | 57 | 219 | 2.0 | 2.0 | 0.00 | 0.00 | 0.00 | 57 | 1013.4 |
| 20260502012209 | 57 | 216 | 3.0 | 5.0 | 0.00 | 0.00 | 0.00 | 56 | 1013.2 |
| 20260502011706 | 57 | 152 | 1.0 | 1.0 | 0.00 | 0.00 | 0.00 | 58 | 1013.2 |
| 20260502011201 | 57 | 179 | 0.0 | 0.0 | 0.00 | 0.00 | 0.00 | 57 | 1013.2 |
| 20260502010700 | 57 | 202 | 0.0 | 1.0 | 0.00 | 0.00 | 0.00 | 58 | 1013.2 |
| 20260502010155 | 56 | 220 | 1.0 | 2.0 | 0.00 | 0.00 | 0.00 | 60 | 1013.0 |
| 20260502005653 | 57 | 269 | 0.0 | 0.0 | 0.00 | 0.00 | 0.00 | 59 | 1013.1 |
| 20260502005150 | 57 | 198 | 0.0 | 1.0 | 0.00 | 0.00 | 0.00 | 59 | 1012.9 |
| 20260502004646 | 57 | 194 | 0.0 | 0.0 | 0.00 | 0.00 | 0.00 | 59 | 1013.0 |
| 20260502004143 | 58 | 212 | 0.0 | 0.0 | 0.00 | 0.00 | 0.00 | 57 | 1012.9 |
| 20260502003641 | 58 | 285 | 1.0 | 1.0 | 0.00 | 0.00 | 0.00 | 56 | 1012.8 |
| 20260502003138 | 57 | 245 | 1.0 | 2.0 | 0.00 | 0.00 | 0.00 | 58 | 1013.0 |
| 20260502002633 | 58 | 210 | 0.0 | 1.0 | 0.00 | 0.00 | 0.00 | 57 | 1012.6 |
| 20260502002131 | 58 | 202 | 0.0 | 0.0 | 0.00 | 0.00 | 0.00 | 56 | 1012.5 |
| 20260502001629 | 58 | 194 | 0.0 | 0.0 | 0.00 | 0.00 | 0.00 | 57 | 1012.8 |
| 20260502001126 | 57 | 134 | 0.0 | 1.0 | 0.00 | 0.00 | 0.00 | 58 | 1012.7 |
| 20260502000624 | 58 | 189 | 0.0 | 0.0 | 0.00 | 0.00 | 0.00 | 58 | 1012.8 |
| 20260502000121 | 58 | 286 | 2.0 | 2.0 | 0.00 | 0.00 | 0.00 | 56 | 1012.8 |
| 20260501235617 | 59 | 201 | 0.0 | 0.0 | 0.00 | 0.00 | 0.00 | 55 | 1012.7 |
| 20260501235113 | 59 | 219 | 1.0 | 2.0 | 0.00 | 0.00 | 0.00 | 55 | 1012.7 |
| 20260501234609 | 59 | 215 | 1.0 | 1.0 | 0.00 | 0.00 | 0.00 | 54 | 1012.5 |
| 20260501234107 | 59 | 228 | 0.0 | 0.0 | 0.00 | 0.00 | 0.00 | 54 | 1012.4 |
| 20260501233605 | 59 | 213 | 2.0 | 2.0 | 0.00 | 0.00 | 0.00 | 54 | 1012.5 |
| 20260501233102 | 59 | 115 | 1.0 | 2.0 | 0.00 | 0.00 | 0.00 | 54 | 1012.2 |
| 20260501232557 | 60 | 204 | 1.0 | 2.0 | 0.00 | 0.00 | 0.00 | 53 | 1012.5 |
| 20260501232055 | 60 | 288 | 1.0 | 2.0 | 0.00 | 0.00 | 0.00 | 52 | 1012.2 |
| 20260501231552 | 60 | 226 | 0.0 | 0.0 | 0.00 | 0.00 | 0.00 | 52 | 1012.3 |
| 20260501231051 | 61 | 236 | 1.0 | 2.0 | 0.00 | 0.00 | 0.00 | 51 | 1012.0 |
| 20260501230549 | 62 | 264 | 3.0 | 3.0 | 0.00 | 0.00 | 0.00 | 50 | 1011.8 |
| 20260501230047 | 62 | 270 | 1.0 | 1.0 | 0.00 | 0.00 | 0.00 | 49 | 1012.1 |
| 20260501225544 | 62 | 265 | 1.0 | 2.0 | 0.00 | 0.00 | 0.00 | 49 | 1011.7 |
| 20260501225040 | 62 | 229 | 5.0 | 7.0 | 0.00 | 0.00 | 0.00 | 48 | 1011.8 |
| 20260501224538 | 63 | 204 | 3.0 | 5.0 | 0.00 | 0.00 | 0.00 | 49 | 1012.0 |
| 20260501224034 | 63 | 253 | 2.0 | 2.0 | 0.00 | 0.00 | 0.00 | 47 | 1012.1 |
| 20260501223531 | 62 | 197 | 0.0 | 1.0 | 0.00 | 0.00 | 0.00 | 48 | 1011.8 |
| 20260501223027 | 62 | 236 | 3.0 | 3.0 | 0.00 | 0.00 | 0.00 | 49 | 1011.8 |
| 20260501222524 | 62 | 294 | 2.0 | 3.0 | 0.00 | 0.00 | 0.00 | 48 | 1011.9 |
| 20260501222021 | 63 | 261 | 1.0 | 1.0 | 0.00 | 0.00 | 0.00 | 47 | 1012.2 |
| 20260501221517 | 63 | 238 | 2.0 | 2.0 | 0.00 | 0.00 | 0.00 | 48 | 1012.2 |
| 20260501221015 | 63 | 235 | 3.0 | 5.0 | 0.00 | 0.00 | 0.00 | 47 | 1012.4 |
| 20260501220512 | 62 | 304 | 1.0 | 1.0 | 0.00 | 0.00 | 0.00 | 48 | 1012.2 |
| 20260501220008 | 62 | 221 | 0.0 | 0.0 | 0.00 | 0.00 | 0.00 | 47 | 1012.3 |
| 20260501215459 | 62 | 209 | 1.0 | 1.0 | 0.00 | 0.00 | 0.00 | 48 | 1012.4 |
| 20260501214954 | 62 | 281 | 3.0 | 3.0 | 0.00 | 0.00 | 0.00 | 46 | 1012.3 |
| 20260501214450 | 63 | 219 | 2.0 | 2.0 | 0.00 | 0.00 | 0.00 | 46 | 1012.4 |
| 20260501213946 | 64 | 225 | 2.0 | 2.0 | 0.00 | 0.00 | 0.00 | 45 | 1012.1 |
| 20260501213443 | 64 | 89 | 3.0 | 3.0 | 0.00 | 0.00 | 0.00 | 44 | 1012.2 |
| 20260501212938 | 65 | 303 | 1.0 | 1.0 | 0.00 | 0.00 | 0.00 | 44 | 1012.0 |
| 20260501212436 | 64 | 218 | 2.0 | 2.0 | 0.00 | 0.00 | 0.00 | 45 | 1012.1 |
| 20260501211932 | 62 | 237 | 4.0 | 6.0 | 0.00 | 0.00 | 0.00 | 46 | 1012.2 |
| 20260501211430 | 62 | 292 | 4.0 | 6.0 | 0.00 | 0.00 | 0.00 | 45 | 1012.3 |
| 20260501210927 | 64 | 231 | 1.0 | 2.0 | 0.00 | 0.00 | 0.00 | 44 | 1012.3 |
| 20260501210424 | 63 | 190 | 4.0 | 6.0 | 0.00 | 0.00 | 0.00 | 44 | 1012.3 |
| 20260501205921 | 64 | 208 | 3.0 | 5.0 | 0.00 | 0.00 | 0.00 | 45 | 1012.5 |
| 20260501205417 | 63 | 288 | 1.0 | 1.0 | 0.00 | 0.00 | 0.00 | 44 | 1012.1 |
| 20260501204915 | 62 | 206 | 5.0 | 7.0 | 0.00 | 0.00 | 0.00 | 46 | 1012.3 |
| 20260501204410 | 62 | 204 | 3.0 | 3.0 | 0.00 | 0.00 | 0.00 | 48 | 1012.4 |
| 20260501203906 | 64 | 270 | 2.0 | 2.0 | 0.00 | 0.00 | 0.00 | 45 | 1012.3 |
| 20260501203404 | 63 | 230 | 3.0 | 3.0 | 0.00 | 0.00 | 0.00 | 45 | 1012.6 |
| 20260501202902 | 64 | 232 | 3.0 | 5.0 | 0.00 | 0.00 | 0.00 | 45 | 1012.5 |
| 20260501202358 | 63 | 129 | 3.0 | 6.0 | 0.00 | 0.00 | 0.00 | 45 | 1012.5 |
| 20260501201855 | 64 | 197 | 1.0 | 1.0 | 0.00 | 0.00 | 0.00 | 47 | 1012.5 |
| 20260501201352 | 64 | 287 | 7.0 | 9.0 | 0.00 | 0.00 | 0.00 | 47 | 1012.4 |
| 20260501200848 | 64 | 240 | 2.0 | 2.0 | 0.00 | 0.00 | 0.00 | 48 | 1012.3 |
| 20260501200345 | 64 | 245 | 3.0 | 3.0 | 0.00 | 0.00 | 0.00 | 44 | 1012.7 |
| 20260501195843 | 64 | 254 | 5.0 | 5.0 | 0.00 | 0.00 | 0.00 | 45 | 1012.5 |
| 20260501195338 | 64 | 221 | 3.0 | 5.0 | 0.00 | 0.00 | 0.00 | 47 | 1012.8 |
| 20260501194835 | 64 | 231 | 1.0 | 2.0 | 0.00 | 0.00 | 0.00 | 45 | 1012.4 |
| 20260501194331 | 64 | 262 | 5.0 | 6.0 | 0.00 | 0.00 | 0.00 | 47 | 1012.8 |
| 20260501193827 | 64 | 135 | 3.0 | 3.0 | 0.00 | 0.00 | 0.00 | 46 | 1012.7 |
| 20260501193326 | 63 | 215 | 1.0 | 1.0 | 0.00 | 0.00 | 0.00 | 46 | 1012.8 |
| 20260501192823 | 63 | 305 | 5.0 | 7.0 | 0.00 | 0.00 | 0.00 | 47 | 1012.8 |
| 20260501192320 | 63 | 262 | 3.0 | 5.0 | 0.00 | 0.00 | 0.00 | 45 | 1012.6 |
| 20260501191817 | 64 | 162 | 2.0 | 2.0 | 0.00 | 0.00 | 0.00 | 51 | 1012.9 |
| 20260501191314 | 63 | 160 | 3.0 | 5.0 | 0.00 | 0.00 | 0.00 | 45 | 1012.9 |
| 20260501190811 | 62 | 265 | 1.0 | 2.0 | 0.00 | 0.00 | 0.00 | 49 | 1013.0 |
| 20260501190307 | 63 | 309 | 5.0 | 8.0 | 0.00 | 0.00 | 0.00 | 46 | 1013.2 |
| 20260501185802 | 64 | 200 | 1.0 | 2.0 | 0.00 | 0.00 | 0.00 | 45 | 1013.0 |
| 20260501185258 | 63 | 205 | 3.0 | 5.0 | 0.00 | 0.00 | 0.00 | 45 | 1012.8 |
| 20260501184754 | 62 | 257 | 4.0 | 6.0 | 0.00 | 0.00 | 0.00 | 45 | 1013.0 |
| 20260501184250 | 62 | 228 | 4.0 | 6.0 | 0.00 | 0.00 | 0.00 | 48 | 1013.5 |
| 20260501183746 | 62 | 289 | 5.0 | 6.0 | 0.00 | 0.00 | 0.00 | 44 | 1013.4 |
| 20260501183243 | 62 | 259 | 4.0 | 5.0 | 0.00 | 0.00 | 0.00 | 47 | 1013.3 |
| 20260501182739 | 62 | 224 | 4.0 | 5.0 | 0.00 | 0.00 | 0.00 | 47 | 1013.6 |
| 20260501182237 | 62 | 229 | 0.0 | 1.0 | 0.00 | 0.00 | 0.00 | 45 | 1013.6 |
| 20260501181733 | 62 | 303 | 4.0 | 6.0 | 0.00 | 0.00 | 0.00 | 47 | 1013.5 |
| 20260501181231 | 62 | 224 | 2.0 | 2.0 | 0.00 | 0.00 | 0.00 | 47 | 1013.7 |
| 20260501180729 | 62 | 301 | 3.0 | 5.0 | 0.00 | 0.00 | 0.00 | 48 | 1013.6 |
| 20260501180224 | 62 | 208 | 1.0 | 1.0 | 0.00 | 0.00 | 0.00 | 49 | 1013.5 |
| 20260501175721 | 61 | 303 | 5.0 | 7.0 | 0.00 | 0.00 | 0.00 | 48 | 1013.4 |
| 20260501175218 | 62 | 215 | 3.0 | 5.0 | 0.00 | 0.00 | 0.00 | 49 | 1013.6 |
| 20260501174714 | 62 | 235 | 1.0 | 1.0 | 0.00 | 0.00 | 0.00 | 48 | 1013.6 |
| 20260501174212 | 62 | 178 | 1.0 | 1.0 | 0.00 | 0.00 | 0.00 | 48 | 1013.6 |
| 20260501173710 | 62 | 254 | 3.0 | 3.0 | 0.00 | 0.00 | 0.00 | 49 | 1013.9 |
| 20260501173207 | 60 | 192 | 0.0 | 0.0 | 0.00 | 0.00 | 0.00 | 48 | 1013.7 |
| 20260501172703 | 59 | 279 | 3.0 | 5.0 | 0.00 | 0.00 | 0.00 | 50 | 1014.0 |
| 20260501172157 | 60 | 230 | 6.0 | 8.0 | 0.00 | 0.00 | 0.00 | 50 | 1014.1 |
| 20260501171654 | 59 | 323 | 1.0 | 1.0 | 0.00 | 0.00 | 0.00 | 50 | 1013.7 |
| 20260501171151 | 60 | 233 | 3.0 | 3.0 | 0.00 | 0.00 | 0.00 | 50 | 1014.2 |
| 20260501170648 | 60 | 298 | 4.0 | 5.0 | 0.00 | 0.00 | 0.00 | 50 | 1014.2 |
| 20260501170145 | 59 | 195 | 1.0 | 1.0 | 0.00 | 0.00 | 0.00 | 48 | 1014.2 |
| 20260501165642 | 62 | 301 | 1.0 | 2.0 | 0.00 | 0.00 | 0.00 | 46 | 1014.3 |
| 20260501165139 | 61 | 91 | 1.0 | 2.0 | 0.00 | 0.00 | 0.00 | 51 | 1014.1 |
| 20260501164638 | 60 | 115 | 0.0 | 1.0 | 0.00 | 0.00 | 0.00 | 49 | 1014.4 |
| 20260501164134 | 59 | 161 | 1.0 | 1.0 | 0.00 | 0.00 | 0.00 | 47 | 1014.3 |
| 20260501163630 | 60 | 143 | 1.0 | 2.0 | 0.00 | 0.00 | 0.00 | 49 | 1014.3 |